This is the latest recevied weather packets stored in our database for station/object DC4XK-10. If no packets are shown the sender has not sent any weather packets the latest 10 day(s).
| Time | Temp. | Humidity | Pressure | Rain* | Wind** | Luminosity | Snow |
|---|---|---|---|---|---|---|---|
| 1777447132 | 8.89° C | 79% | 1028.9 hPa | 0 mm | 0.89 m/s, 345° | - | - |
| 1777446530 | 8.89° C | 81% | 1028.9 hPa | 0 mm | 1.79 m/s, 320° | - | - |
| 1777445931 | 8.89° C | 81% | 1028.8 hPa | 0 mm | 0.89 m/s, 294° | - | - |
| 1777445333 | 8.33° C | 83% | 1028.8 hPa | 0 mm | 0 m/s | - | - |
| 1777444731 | 8.33° C | 85% | 1028.7 hPa | 0 mm | 0 m/s | - | - |
| 1777444131 | 7.78° C | 87% | 1028.9 hPa | 0 mm | 0.45 m/s, 300° | - | - |
| 1777443533 | 7.22° C | 89% | 1028.8 hPa | 0 mm | 0.89 m/s, 344° | - | - |
| 1777442931 | 6.67° C | 91% | 1029 hPa | 0 mm | 0.89 m/s, 346° | - | - |
| 1777442331 | 6.67° C | 93% | 1028.7 hPa | 0 mm | 0 m/s | - | - |
| 1777441732 | 6.11° C | 95% | 1028.6 hPa | 0 mm | 0 m/s | - | - |
| 1777441131 | 6.11° C | 96% | 1028.4 hPa | 0 mm | 0 m/s | - | - |
| 1777440530 | 5.56° C | 97% | 1028.3 hPa | 0 mm | 0 m/s | - | - |
| 1777439931 | 5.56° C | 98% | 1028.3 hPa | 0 mm | 0 m/s | - | - |
| 1777439331 | 4.44° C | 98% | 1028.3 hPa | 0 mm | 0 m/s | - | - |
| 1777438731 | 3.89° C | 98% | 1028 hPa | 0 mm | 0 m/s | - | - |
| 1777438131 | 3.33° C | 98% | 1027.9 hPa | 0 mm | 0 m/s | - | - |
| 1777437531 | 3.33° C | 98% | 1028 hPa | 0 mm | 0 m/s | - | - |
| 1777436931 | 2.78° C | 97% | 1028 hPa | 0 mm | 0 m/s | - | - |
| 1777436331 | 1.67° C | 97% | 1028.2 hPa | 0 mm | 0 m/s | - | - |
| 1777435731 | 2.22° C | 96% | 1028.3 hPa | 0 mm | 0 m/s | - | - |
| 1777435132 | 1.11° C | 95% | 1028 hPa | 0 mm | 0 m/s | - | - |
| 1777434531 | 1.11° C | 94% | 1028.2 hPa | 0 mm | 0 m/s | - | - |
| 1777433931 | 2.22° C | 94% | 1027.9 hPa | 0 mm | 0 m/s | - | - |
| 1777433333 | 1.67° C | 93% | 1027.9 hPa | 0 mm | 0 m/s | - | - |
| 1777432731 | 1.11° C | 92% | 1028 hPa | 0 mm | 0 m/s | - | - |
* Rain latest hour (hover to see other rain measurements)
** Current wind speed in m/s (hover to see current wind gust speed)